Location: Newark
(34.0131°N, 4.3314°W)
Time: 11:03:19
(UTC+00:00)

Altair - Visible Passes

Search period start: 23 October 2019 00:00
Search period end: 02 November 2019 00:00
Orbit: 1501 x 1682 km, 47.2° (Epoch: 22 October)

Date Brightness Start Highest point End Pass type
(mag) Time Alt. Az. Time Alt. Az. Time Alt. Az.
23 Oct 9.8 19:34:58 10° W 19:40:12 15° WSW 19:45:28 10° SSW visible
24 Oct 9.8 19:09:05 10° W 19:15:08 18° WSW 19:21:12 10° SSW visible
25 Oct 9.8 18:43:22 10° W 18:50:03 20° SW 18:56:47 10° SSW visible
26 Oct 9.8 18:17:45 10° WNW 18:24:58 23° SW 18:32:14 10° S visible
27 Oct 9.8 17:52:12 10° WNW 17:59:52 25° SW 18:07:37 10° S visible
31 Oct 9.6 05:45:25 10° S 05:52:32 26° SE 05:59:44 10° ENE visible
01 Nov 9.6 05:20:49 10° S 05:27:29 23° SE 05:34:13 10° ENE visible
